Terug naar catalogus

THOR ABLESTAR DEB

ActiefPO
NORAD 1521·DEBRIS·🇺🇸 United States

Gelanceerd Aug 13, 1965 vanaf Vandenberg Space Force Base

Loading…

Volgende Passages (komende 24 uur)

TLE

VersSource: Space-Track

Epoch: Sep 14, 2026, 08:15 UTC

1 01521U 65065K   26257.34382414  .00000027  00000-0  36358-4 0  9990
2 01521  90.0283 210.5180 0070078  14.3612 149.7503 13.33287770971286

Volg THOR ABLESTAR DEB in realtime met AllMySat

Download on the App Store